• In Uzbekistan
  • List of Countries
  • For 7 days
  • Water Temperature
  • Satellite Maps
  • Weather Map
  • Weather Widgets
  • user-avatar
    Login

    Hourly Weather Vanadzor

    Today, 26 May, Friday

    Time Temperature Precipitation Wind Pressure Humidity
    00:00 +6°C° 0.1 mm 1 mps 635 mmHg 96%
    01:00 +6°C° 0 mm 1 mps 634 mmHg 96%
    02:00 +5°C° 0 mm 1 mps 634 mmHg 97%
    03:00 +6°C° 0 mm 1 mps 634 mmHg 97%
    04:00 +8°C° 0.1 mm 1 mps 635 mmHg 94%
    05:00 +9°C° 0.1 mm 1 mps 635 mmHg 92%
    06:00 +9°C° 0.1 mm 0 mps 636 mmHg 89%
    07:00 +12°C° 0 mm 1 mps 636 mmHg 80%
    08:00 +14°C° 0 mm 1 mps 637 mmHg 71%
    09:00 +15°C° 0 mm 1 mps 637 mmHg 61%
    10:00 +16°C° 0.1 mm 2 mps 637 mmHg 57%
    11:00 +17°C° 0.1 mm 2 mps 637 mmHg 54%
    12:00 +18°C° 0.1 mm 3 mps 637 mmHg 50%
    13:00 +18°C° 0.2 mm 3 mps 636 mmHg 52%
    14:00 +18°C° 0.2 mm 2 mps 636 mmHg 54%
    15:00 +18°C° 0.2 mm 2 mps 636 mmHg 55%
    16:00 +17°C° 0.5 mm 2 mps 635 mmHg 63%
    17:00 +16°C° 0.5 mm 2 mps 635 mmHg 70%
    18:00 +15°C° 0.5 mm 1 mps 634 mmHg 77%
    19:00 +13°C° 0.5 mm 1 mps 634 mmHg 82%
    20:00 +10°C° 0.5 mm 1 mps 633 mmHg 87%
    21:00 +8°C° 0.5 mm 1 mps 633 mmHg 93%
    22:00 +8°C° 0.1 mm 1 mps 633 mmHg 93%
    23:00 +7°C° 0.1 mm 1 mps 633 mmHg 94%

    Tomorrow, 27 May, Saturday

    Time Temperature Precipitation Wind Pressure Humidity
    00:00 +7°C° 0.1 mm 1 mps 633 mmHg 95%
    01:00 +7°C° 0 mm 1 mps 633 mmHg 96%
    02:00 +7°C° 0 mm 1 mps 632 mmHg 96%
    03:00 +7°C° 0 mm 1 mps 632 mmHg 96%
    04:00 +8°C° 0.1 mm 1 mps 633 mmHg 93%
    05:00 +9°C° 0.1 mm 1 mps 633 mmHg 89%
    06:00 +10°C° 0.1 mm 1 mps 634 mmHg 85%
    07:00 +12°C° 0 mm 1 mps 634 mmHg 78%
    08:00 +14°C° 0 mm 1 mps 634 mmHg 72%
    09:00 +15°C° 0 mm 2 mps 635 mmHg 65%
    10:00 +17°C° 0.1 mm 2 mps 635 mmHg 61%
    11:00 +18°C° 0.1 mm 2 mps 635 mmHg 56%
    12:00 +19°C° 0.1 mm 3 mps 635 mmHg 52%
    13:00 +19°C° 0.7 mm 3 mps 634 mmHg 56%
    14:00 +19°C° 0.7 mm 3 mps 634 mmHg 60%
    15:00 +19°C° 0.7 mm 2 mps 634 mmHg 63%
    16:00 +18°C° 0.9 mm 2 mps 633 mmHg 68%
    17:00 +17°C° 0.9 mm 2 mps 633 mmHg 73%
    18:00 +18°C° 0.9 mm 1 mps 633 mmHg 78%
    19:00 +14°C° 0.5 mm 1 mps 632 mmHg 83%
    20:00 +11°C° 0.5 mm 1 mps 632 mmHg 89%
    21:00 +8°C° 0.5 mm 1 mps 631 mmHg 94%
    22:00 +8°C° 0.1 mm 1 mps 631 mmHg 94%
    23:00 +7°C° 0.1 mm 1 mps 631 mmHg 94%

    Day after tomorrow, 28 May, Sunday

    Time Temperature Precipitation Wind Pressure Humidity
    00:00 +7°C° 0.1 mm 1 mps 631 mmHg 94%
    01:00 +7°C° 0 mm 1 mps 631 mmHg 93%
    02:00 +7°C° 0 mm 1 mps 631 mmHg 93%
    03:00 +6°C° 0 mm 1 mps 631 mmHg 93%
    04:00 +8°C° 0 mm 1 mps 632 mmHg 90%
    05:00 +9°C° 0 mm 1 mps 633 mmHg 87%
    06:00 +11°C° 0 mm 1 mps 634 mmHg 85%
    07:00 +13°C° 0 mm 1 mps 634 mmHg 74%
    08:00 +15°C° 0 mm 1 mps 635 mmHg 64%
    09:00 +18°C° 0 mm 2 mps 636 mmHg 53%
    10:00 +19°C° 0.2 mm 2 mps 636 mmHg 50%
    11:00 +19°C° 0.2 mm 3 mps 636 mmHg 47%
    12:00 +20°C° 0.2 mm 3 mps 636 mmHg 45%
    13:00 +20°C° 0.6 mm 3 mps 636 mmHg 45%
    14:00 +20°C° 0.6 mm 3 mps 636 mmHg 45%
    15:00 +20°C° 0.6 mm 3 mps 635 mmHg 45%
    16:00 +19°C° 0.9 mm 3 mps 635 mmHg 53%
    17:00 +18°C° 0.9 mm 2 mps 635 mmHg 61%
    18:00 +17°C° 0.9 mm 2 mps 635 mmHg 69%
    19:00 +14°C° 0.2 mm 2 mps 634 mmHg 75%
    20:00 +11°C° 0.2 mm 1 mps 634 mmHg 81%
    21:00 +8°C° 0.2 mm 1 mps 634 mmHg 87%
    22:00 +8°C° 0.1 mm 1 mps 634 mmHg 88%
    23:00 +8°C° 0.1 mm 1 mps 634 mmHg 89%

    29 May, Monday

    Time Temperature Precipitation Wind Pressure Humidity
    00:00 +7°C° 0.1 mm 1 mps 634 mmHg 89%
    01:00 +6°C° 0 mm 1 mps 634 mmHg 91%
    02:00 +6°C° 0 mm 1 mps 634 mmHg 92%
    03:00 +5°C° 0 mm 1 mps 634 mmHg 94%
    04:00 +7°C° 0 mm 1 mps 635 mmHg 90%
    05:00 +9°C° 0 mm 1 mps 636 mmHg 86%
    06:00 +11°C° 0 mm 1 mps 637 mmHg 82%
    07:00 +13°C° 0 mm 1 mps 637 mmHg 73%
    08:00 +15°C° 0 mm 1 mps 638 mmHg 64%
    09:00 +18°C° 0 mm 1 mps 639 mmHg 54%
    10:00 +19°C° 0.2 mm 1 mps 639 mmHg 53%
    11:00 +19°C° 0.2 mm 2 mps 639 mmHg 52%
    12:00 +20°C° 0.2 mm 2 mps 639 mmHg 51%
    13:00 +20°C° 0.5 mm 2 mps 639 mmHg 53%
    14:00 +20°C° 0.5 mm 2 mps 638 mmHg 55%
    15:00 +21°C° 0.5 mm 1 mps 638 mmHg 57%
    16:00 +20°C° 0.6 mm 1 mps 638 mmHg 63%
    17:00 +19°C° 0.6 mm 1 mps 638 mmHg 69%
    18:00 +18°C° 0.6 mm 1 mps 638 mmHg 75%
    19:00 +15°C° 0.6 mm 1 mps 637 mmHg 81%
    20:00 +13°C° 0.6 mm 1 mps 637 mmHg 87%
    21:00 +11°C° 0.6 mm 1 mps 637 mmHg 93%
    22:00 +9°C° 0.5 mm 2 mps 637 mmHg 94%
    23:00 +9°C° 0.5 mm 2 mps 638 mmHg 95%

    30 May, Tuesday

    Time Temperature Precipitation Wind Pressure Humidity
    00:00 +9°C° 0.5 mm 2 mps 638 mmHg 97%
    01:00 +9°C° 0.1 mm 2 mps 637 mmHg 97%
    02:00 +10°C° 0.1 mm 1 mps 637 mmHg 97%
    03:00 +10°C° 0.1 mm 1 mps 637 mmHg 97%
    04:00 +10°C° 0 mm 1 mps 637 mmHg 96%
    05:00 +10°C° 0 mm 1 mps 637 mmHg 95%
    06:00 +10°C° 0 mm 1 mps 637 mmHg 95%
    07:00 +12°C° 0 mm 1 mps 637 mmHg 86%
    08:00 +14°C° 0 mm 1 mps 637 mmHg 78%
    09:00 +15°C° 0 mm 1 mps 638 mmHg 69%
    10:00 +17°C° 0 mm 2 mps 638 mmHg 62%
    11:00 +19°C° 0 mm 2 mps 638 mmHg 54%
    12:00 +21°C° 0 mm 2 mps 638 mmHg 47%
    13:00 +21°C° 0.1 mm 2 mps 638 mmHg 47%
    14:00 +21°C° 0.1 mm 2 mps 637 mmHg 47%
    15:00 +21°C° 0.1 mm 2 mps 637 mmHg 48%
    16:00 +20°C° 0.2 mm 2 mps 637 mmHg 54%
    17:00 +19°C° 0.2 mm 2 mps 637 mmHg 60%
    18:00 +19°C° 0.2 mm 1 mps 636 mmHg 66%
    19:00 +15°C° 0.1 mm 1 mps 636 mmHg 72%
    20:00 +12°C° 0.1 mm 1 mps 635 mmHg 78%
    21:00 +7°C° 0.1 mm 0 mps 634 mmHg 83%
    22:00 +8°C° 0 mm 1 mps 634 mmHg 84%
    23:00 +8°C° 0 mm 1 mps 634 mmHg 84%

    31 May, Wednesday

    Time Temperature Precipitation Wind Pressure Humidity
    00:00 +8°C° 0 mm 1 mps 634 mmHg 85%
    01:00 +8°C° 0 mm 1 mps 634 mmHg 81%
    02:00 +7°C° 0 mm 1 mps 633 mmHg 76%
    03:00 +7°C° 0 mm 1 mps 633 mmHg 72%
    04:00 +9°C° 0 mm 1 mps 634 mmHg 70%
    05:00 +10°C° 0 mm 1 mps 635 mmHg 68%
    06:00 +12°C° 0 mm 1 mps 635 mmHg 66%
    07:00 +15°C° 0 mm 1 mps 636 mmHg 57%
    08:00 +18°C° 0 mm 1 mps 636 mmHg 48%
    09:00 +21°C° 0 mm 1 mps 637 mmHg 39%
    10:00 +22°C° 0 mm 1 mps 637 mmHg 37%
    11:00 +23°C° 0 mm 2 mps 637 mmHg 36%
    12:00 +24°C° 0 mm 2 mps 637 mmHg 34%
    13:00 +24°C° 0.1 mm 2 mps 637 mmHg 37%
    14:00 +24°C° 0.1 mm 2 mps 636 mmHg 39%
    15:00 +24°C° 0.1 mm 2 mps 636 mmHg 41%
    16:00 +23°C° 0.4 mm 1 mps 636 mmHg 50%
    17:00 +21°C° 0.4 mm 1 mps 635 mmHg 59%
    18:00 +20°C° 0.4 mm 1 mps 635 mmHg 68%
    19:00 +16°C° 0.2 mm 1 mps 634 mmHg 75%
    20:00 +14°C° 0.2 mm 1 mps 633 mmHg 82%
    21:00 +11°C° 0.2 mm 1 mps 632 mmHg 89%
    22:00 +10°C° 0.1 mm 1 mps 632 mmHg 90%
    23:00 +10°C° 0.1 mm 1 mps 632 mmHg 91%
    Show more